Stündliche Wetter Dabie

Heute, 28 Oktober, Mittwoch

Zeit Temperatur Niederschläge Wind Luftdruck Luftfeuchtigkeit
00:00 +10°C° 1 mm 3 m/S 746 mmHg 91%
01:00 +9°C° 0 mm 3 m/S 747 mmHg 91%
02:00 +9°C° 0.2 mm 3 m/S 747 mmHg 92%
03:00 +8°C° 0.2 mm 2 m/S 747 mmHg 92%
04:00 +8°C° 0.2 mm 2 m/S 747 mmHg 93%
05:00 +8°C° 0 mm 3 m/S 747 mmHg 93%
06:00 +8°C° 0 mm 3 m/S 747 mmHg 92%
07:00 +7°C° 0 mm 3 m/S 747 mmHg 92%
08:00 +9°C° 0 mm 3 m/S 747 mmHg 86%
09:00 +10°C° 0 mm 4 m/S 748 mmHg 81%
10:00 +11°C° 0 mm 4 m/S 748 mmHg 75%
11:00 +11°C° 0 mm 4 m/S 747 mmHg 73%
12:00 +12°C° 0 mm 4 m/S 747 mmHg 71%
13:00 +13°C° 0 mm 5 m/S 747 mmHg 69%
14:00 +12°C° 0 mm 4 m/S 747 mmHg 73%
15:00 +11°C° 0 mm 4 m/S 747 mmHg 77%
16:00 +10°C° 0 mm 3 m/S 747 mmHg 82%
17:00 +10°C° 0 mm 3 m/S 746 mmHg 84%
18:00 +10°C° 0 mm 3 m/S 746 mmHg 87%
19:00 +9°C° 0 mm 3 m/S 746 mmHg 89%
20:00 +9°C° 0 mm 3 m/S 746 mmHg 90%
21:00 +9°C° 0 mm 3 m/S 747 mmHg 90%
22:00 +9°C° 0 mm 3 m/S 747 mmHg 90%
23:00 +9°C° 0 mm 2 m/S 747 mmHg 88%

Morgen, 29 Oktober, Donnerstag

Zeit Temperatur Niederschläge Wind Luftdruck Luftfeuchtigkeit
00:00 +9°C° 0 mm 2 m/S 746 mmHg 87%
01:00 +9°C° 0 mm 2 m/S 746 mmHg 85%
02:00 +9°C° 0.3 mm 2 m/S 746 mmHg 87%
03:00 +9°C° 0.3 mm 2 m/S 746 mmHg 89%
04:00 +9°C° 0.3 mm 2 m/S 745 mmHg 91%
05:00 +8°C° 0 mm 3 m/S 745 mmHg 92%
06:00 +8°C° 0 mm 3 m/S 745 mmHg 94%
07:00 +8°C° 0 mm 3 m/S 745 mmHg 95%
08:00 +9°C° 0 mm 3 m/S 745 mmHg 91%
09:00 +9°C° 0 mm 3 m/S 745 mmHg 87%
10:00 +10°C° 0 mm 4 m/S 745 mmHg 83%
11:00 +11°C° 0 mm 4 m/S 745 mmHg 80%
12:00 +11°C° 0 mm 3 m/S 745 mmHg 77%
13:00 +12°C° 0 mm 3 m/S 745 mmHg 74%
14:00 +11°C° 0 mm 3 m/S 745 mmHg 77%
15:00 +10°C° 0 mm 3 m/S 745 mmHg 80%
16:00 +9°C° 0 mm 2 m/S 745 mmHg 83%
17:00 +9°C° 0 mm 2 m/S 745 mmHg 84%
18:00 +9°C° 0 mm 2 m/S 745 mmHg 85%
19:00 +9°C° 0 mm 2 m/S 745 mmHg 86%
20:00 +9°C° 0.3 mm 2 m/S 745 mmHg 88%
21:00 +9°C° 0.3 mm 2 m/S 745 mmHg 90%
22:00 +9°C° 0.3 mm 3 m/S 745 mmHg 93%
23:00 +9°C° 0.9 mm 3 m/S 745 mmHg 92%

übermorgen, 30 Oktober, Freitag

Zeit Temperatur Niederschläge Wind Luftdruck Luftfeuchtigkeit
00:00 +8°C° 0.9 mm 3 m/S 746 mmHg 91%
01:00 +7°C° 0.9 mm 4 m/S 746 mmHg 90%
02:00 +7°C° 0 mm 4 m/S 746 mmHg 91%
03:00 +7°C° 0 mm 3 m/S 746 mmHg 92%
04:00 +7°C° 0 mm 3 m/S 746 mmHg 94%
05:00 +6°C° 0.1 mm 4 m/S 746 mmHg 93%
06:00 +6°C° 0.1 mm 5 m/S 747 mmHg 91%
07:00 +7°C° 0.1 mm 5 m/S 747 mmHg 90%
08:00 +7°C° 0 mm 5 m/S 747 mmHg 88%
09:00 +8°C° 0 mm 5 m/S 747 mmHg 85%
10:00 +8°C° 0 mm 6 m/S 748 mmHg 83%
11:00 +8°C° 0 mm 5 m/S 748 mmHg 82%
12:00 +8°C° 0 mm 5 m/S 748 mmHg 82%
13:00 +8°C° 0 mm 5 m/S 748 mmHg 81%
14:00 +8°C° 0 mm 4 m/S 748 mmHg 82%
15:00 +8°C° 0 mm 4 m/S 748 mmHg 84%
16:00 +8°C° 0 mm 3 m/S 748 mmHg 85%
17:00 +8°C° 0 mm 3 m/S 748 mmHg 86%
18:00 +8°C° 0 mm 2 m/S 748 mmHg 87%
19:00 +8°C° 0 mm 2 m/S 748 mmHg 88%
20:00 +7°C° 0 mm 2 m/S 748 mmHg 89%
21:00 +7°C° 0 mm 2 m/S 749 mmHg 89%
22:00 +6°C° 0 mm 2 m/S 749 mmHg 90%
23:00 +6°C° 0 mm 2 m/S 749 mmHg 91%

31 Oktober, Samstag

Zeit Temperatur Niederschläge Wind Luftdruck Luftfeuchtigkeit
00:00 +6°C° 0 mm 2 m/S 749 mmHg 92%
01:00 +5°C° 0 mm 2 m/S 750 mmHg 92%
02:00 +5°C° 0 mm 2 m/S 750 mmHg 94%
03:00 +5°C° 0 mm 2 m/S 751 mmHg 95%
04:00 +5°C° 0 mm 2 m/S 751 mmHg 97%
05:00 +5°C° 0 mm 2 m/S 751 mmHg 97%
06:00 +5°C° 0 mm 2 m/S 752 mmHg 97%
07:00 +5°C° 0 mm 2 m/S 752 mmHg 97%
08:00 +5°C° 0 mm 3 m/S 752 mmHg 94%
09:00 +7°C° 0 mm 3 m/S 753 mmHg 91%
10:00 +8°C° 0 mm 3 m/S 754 mmHg 89%
11:00 +8°C° 0 mm 3 m/S 754 mmHg 86%
12:00 +9°C° 0 mm 2 m/S 754 mmHg 84%
13:00 +9°C° 0 mm 2 m/S 754 mmHg 82%
14:00 +9°C° 0 mm 2 m/S 754 mmHg 85%
15:00 +8°C° 0 mm 2 m/S 755 mmHg 89%
16:00 +8°C° 0 mm 1 m/S 755 mmHg 92%
17:00 +8°C° 0 mm 1 m/S 755 mmHg 92%
18:00 +8°C° 0 mm 1 m/S 755 mmHg 92%
19:00 +7°C° 0 mm 1 m/S 756 mmHg 93%
20:00 +7°C° 0 mm 1 m/S 756 mmHg 93%
21:00 +7°C° 0 mm 1 m/S 756 mmHg 93%
22:00 +7°C° 0 mm 1 m/S 756 mmHg 93%
23:00 +6°C° 0 mm 1 m/S 756 mmHg 93%

1 November, Sonntag

Zeit Temperatur Niederschläge Wind Luftdruck Luftfeuchtigkeit
00:00 +6°C° 0 mm 1 m/S 756 mmHg 94%
01:00 +6°C° 0 mm 1 m/S 756 mmHg 94%
02:00 +6°C° 0 mm 1 m/S 756 mmHg 94%
03:00 +6°C° 0 mm 1 m/S 756 mmHg 94%
04:00 +6°C° 0 mm 1 m/S 756 mmHg 94%
05:00 +5°C° 0 mm 1 m/S 756 mmHg 94%
06:00 +4°C° 0 mm 2 m/S 756 mmHg 94%
07:00 +4°C° 0 mm 2 m/S 756 mmHg 94%
08:00 +6°C° 0 mm 2 m/S 756 mmHg 89%
09:00 +7°C° 0 mm 3 m/S 756 mmHg 85%
10:00 +8°C° 0 mm 3 m/S 756 mmHg 80%
11:00 +9°C° 0 mm 3 m/S 756 mmHg 78%
12:00 +9°C° 0 mm 3 m/S 756 mmHg 75%
13:00 +10°C° 0 mm 4 m/S 756 mmHg 73%
14:00 +9°C° 0 mm 3 m/S 755 mmHg 77%
15:00 +8°C° 0 mm 3 m/S 755 mmHg 81%
16:00 +7°C° 0 mm 3 m/S 755 mmHg 85%
17:00 +7°C° 0 mm 3 m/S 754 mmHg 85%
18:00 +6°C° 0 mm 4 m/S 754 mmHg 86%
19:00 +5°C° 0 mm 4 m/S 754 mmHg 86%
20:00 +5°C° 0 mm 4 m/S 754 mmHg 87%
21:00 +5°C° 0 mm 4 m/S 754 mmHg 87%
22:00 +5°C° 0 mm 4 m/S 754 mmHg 88%
23:00 +5°C° 0 mm 5 m/S 754 mmHg 88%

2 November, Montag

Zeit Temperatur Niederschläge Wind Luftdruck Luftfeuchtigkeit
00:00 +3°C° 0 mm 5 m/S 754 mmHg 88%
01:00 +3°C° 0 mm 5 m/S 754 mmHg 88%
02:00 +3°C° 0 mm 5 m/S 753 mmHg 88%
03:00 +3°C° 0 mm 5 m/S 753 mmHg 88%
04:00 +3°C° 0 mm 5 m/S 753 mmHg 88%
05:00 +3°C° 0 mm 5 m/S 753 mmHg 88%
06:00 +3°C° 0 mm 5 m/S 753 mmHg 88%
07:00 +3°C° 0 mm 5 m/S 753 mmHg 88%
08:00 +4°C° 0 mm 6 m/S 753 mmHg 83%
09:00 +5°C° 0 mm 6 m/S 753 mmHg 79%
10:00 +7°C° 0 mm 6 m/S 753 mmHg 74%
11:00 +8°C° 0 mm 6 m/S 753 mmHg 73%
12:00 +8°C° 0 mm 6 m/S 753 mmHg 71%
13:00 +9°C° 0 mm 6 m/S 753 mmHg 69%
14:00 +8°C° 0 mm 6 m/S 753 mmHg 73%
15:00 +8°C° 0 mm 5 m/S 753 mmHg 77%
16:00 +7°C° 0 mm 5 m/S 753 mmHg 81%
17:00 +7°C° 0 mm 5 m/S 753 mmHg 81%
18:00 +6°C° 0 mm 5 m/S 753 mmHg 82%
19:00 +6°C° 0 mm 5 m/S 753 mmHg 82%
20:00 +6°C° 0 mm 5 m/S 753 mmHg 83%
21:00 +5°C° 0 mm 5 m/S 753 mmHg 83%
22:00 +5°C° 0 mm 5 m/S 754 mmHg 83%
23:00 +5°C° 0 mm 5 m/S 754 mmHg 86%
Mehr zeigen

Wir brauchen deine Erlaubnis

Meteoprog und unser Service Anbieter werden persönliche Daten aufbewahren, so wie Cookies, Geräte Bezeichnung oder ähnliche Technologien von deinem Gerät und Prozess, so wie Persönliche Daten Inhalte und Werbungen, genauso wie social Media und den Verkehr zu analysieren.

  • Aufbewahrung und/oder Zugang zu deiner Geräte Informationen.

    Cookies, Geräte Bezeichnung oder andere Informationen, können aufbewahrt oder Zugang zu deinem Gerät erhalten, für den Grund, der oben angegeben wird.

  • Personalisierte Werbung und Inhalte, Messungen, Einblick in das Publikum und Produkt Entwicklung.

    Werbungen und Inhalte können personalisiert werden, basierend auf ein Profil. Mehr Daten können besser personalisierte Werbungen und Inhalte hinzufügen. Werbung und Inhalte können gezeigt und gemessen werden. Einblicke über das Publikum, welche die Werbung gesehen haben und den Inhalt, können abgeleitet werden. So wie Daten können genutzt werden, um es zu verbessern oder die Benutzer Erfahrung zu verbessern das System und die Software.

Wenn du “Ich stimme zu” klickst, erlaubst du uns, die Cookies zu benutzen die Geräte Bezeichnung, den Web oder ähnliche Technologien zu benutzen. Deine Settings, können in deinem Gerät bei deinem Browser geändert werden.

Für den bestimmten Zweck, berechtigten Interessen beruhen darauf, mehr als auf den Inhalt. Du kannst mehr darüber in unseren Privaten und Cookie Politik lesen.